DW1384 Weather Reports


time (UTC)temp
C
wind
direction
speed
KPH
gust
KPH
rain 1hr
cm
rain 24hr
cm
rain mn
cm
humidity
%
barometer
mb
20200227112711 3 147 6.4 24.1 0.00 0.51 0.25 86 998.0
20200227112211 3 128 3.2 24.1 0.00 0.51 0.25 86 998.2
20200227111711 3 130 1.6 14.5 0.00 0.51 0.25 87 998.4
20200227111210 3 150 3.2 14.5 0.00 0.53 0.25 87 998.4
20200227110711 3 163 3.2 14.5 0.00 0.56 0.25 87 998.5
20200227110210 3 171 1.6 16.1 0.00 0.58 0.25 87 998.6
20200227105710 3 226 1.6 16.1 0.00 0.61 0.25 88 998.7
20200227105210 3 124 3.2 16.1 0.00 0.61 0.25 88 998.9
20200227104711 3 148 3.2 16.1 0.00 0.61 0.25 88 998.9
20200227104210 3 128 3.2 14.5 0.00 0.61 0.25 88 999.0
20200227103711 3 166 4.8 17.7 0.00 0.61 0.25 88 999.1
20200227103213 2 138 4.8 22.5 0.00 0.64 0.25 88 999.3
20200227102711 2 163 4.8 22.5 0.00 0.64 0.25 89 999.7
20200227102208 2 163 3.2 17.7 0.00 0.66 0.25 89 999.8
20200227101710 2 165 3.2 17.7 0.00 0.69 0.25 90 1000.0
20200227101208 2 135 3.2 17.7 0.00 0.69 0.25 90 1000.1
20200227100709 2 141 1.6 16.1 0.00 0.71 0.25 90 1000.2
20200227100208 2 134 3.2 16.1 0.00 0.71 0.25 90 1000.4
20200227095710 2 142 1.6 16.1 0.00 0.74 0.25 90 1000.7
20200227095209 2 147 1.6 17.7 0.00 0.74 0.25 90 1000.8
20200227094708 2 150 1.6 17.7 0.00 0.76 0.25 90 1000.8
20200227094208 2 176 1.6 16.1 0.00 0.79 0.25 90 1000.8
20200227093709 2 149 3.2 16.1 0.00 0.79 0.25 90 1000.9
20200227093209 2 130 1.6 12.9 0.00 0.81 0.25 90 1001.0
20200227092708 2 157 1.6 12.9 0.03 0.84 0.25 91 1001.3
20200227092208 2 161 3.2 19.3 0.03 0.86 0.25 91 1001.3
20200227091709 2 185 3.2 19.3 0.03 0.89 0.25 91 1001.3
20200227091208 2 145 3.2 12.9 0.03 0.89 0.25 91 1001.4
20200227090709 2 166 4.8 16.1 0.03 0.91 0.25 91 1001.4
20200227090208 2 135 6.4 19.3 0.03 0.94 0.25 91 1001.7
20200227085709 2 143 6.4 19.3 0.03 0.97 0.25 92 1001.9
20200227085208 2 162 3.2 16.1 0.03 0.99 0.25 92 1001.9
20200227084709 2 117 4.8 16.1 0.03 0.99 0.25 93 1001.9
20200227084209 2 181 6.4 17.7 0.03 1.02 0.25 93 1002.0
20200227083708 2 168 6.4 17.7 0.05 1.02 0.25 93 1002.1
20200227083209 2 176 6.4 12.9 0.05 1.02 0.25 93 1002.2
20200227082708 2 159 6.4 14.5 0.03 0.99 0.23 93 1002.3
20200227082208 2 157 8.0 14.5 0.03 0.99 0.23 93 1002.3
20200227081709 2 151 8.0 12.9 0.03 0.99 0.23 94 1002.4
20200227081208 2 163 6.4 14.5 0.03 0.99 0.23 94 1002.6
20200227080709 2 178 4.8 14.5 0.03 0.99 0.23 94 1002.7
20200227080208 2 118 4.8 11.3 0.03 0.99 0.23 94 1002.7
20200227075709 2 169 4.8 9.7 0.03 0.99 0.23 94 1002.8
20200227075208 2 176 3.2 9.7 0.03 0.99 0.23 94 1002.9
20200227074709 2 174 1.6 6.4 0.05 0.99 0.23 94 1002.9
20200227074208 2 170 1.6 6.4 0.05 0.99 0.23 94 1003.0
20200227073709 2 170 1.6 4.8 0.03 0.99 0.23 94 1003.0
20200227073208 1 170 0.0 6.4 0.03 0.99 0.23 94 1003.1
20200227072709 1 170 1.6 6.4 0.03 0.99 0.23 94 1003.1
20200227072208 1 170 0.0 3.2 0.03 0.99 0.23 94 1003.0
20200227071709 1 170 0.0 1.6 0.03 0.99 0.23 94 1003.1
20200227071209 1 170 0.0 0.0 0.03 0.99 0.23 94 1003.1
20200227070709 1 170 0.0 0.0 0.03 0.99 0.23 94 1003.1
20200227070208 1 170 0.0 4.8 0.05 0.99 0.23 94 1003.2
20200227065709 1 170 0.0 4.8 0.05 0.99 0.23 94 1003.2
20200227065208 1 170 0.0 4.8 0.05 0.99 0.23 94 1003.2
20200227064708 1 170 0.0 4.8 0.03 0.97 0.20 94 1003.2
20200227064208 1 170 0.0 3.2 0.03 0.97 0.20 94 1003.1
20200227063708 1 170 1.6 4.8 0.05 0.97 0.20 94 1003.2
20200227063206 1 170 3.2 6.4 0.05 0.97 0.20 94 1003.2
20200227062707 1 170 3.2 8.0 0.05 0.97 0.20 94 1003.2
20200227062206 1 154 4.8 9.7 0.05 0.97 0.20 94 1003.2
20200227061707 1 173 4.8 9.7 0.05 0.97 0.20 94 1003.3
20200227061206 1 147 4.8 12.9 0.05 0.97 0.20 94 1003.4
20200227060707 1 180 4.8 12.9 0.05 0.97 0.20 94 1003.4
20200227060206 1 128 6.4 16.1 0.05 0.94 0.18 94 1003.5
20200227055705 1 134 4.8 16.1 0.05 0.94 0.18 94 1003.6
20200227055204 1 147 3.2 11.3 0.05 0.94 0.18 94 1003.7
20200227054706 1 142 1.6 9.7 0.05 0.94 0.18 94 1003.7
20200227054204 1 145 3.2 9.7 0.08 0.94 0.18 94 1003.9
20200227053705 1 143 3.2 8.0 0.05 0.91 0.15 94 1003.9
20200227053202 1 143 3.2 8.0 0.05 0.94 0.15 94 1004.1
20200227052702 1 151 3.2 8.0 0.08 0.94 0.15 94 1004.2
20200227052201 1 143 3.2 8.0 0.05 0.91 0.15 94 1004.2
20200227051702 1 153 1.6 6.4 0.05 0.91 0.15 94 1004.2
20200227051200 1 142 0.0 3.2 0.05 0.91 0.15 93 1004.3
20200227050700 1 142 0.0 3.2 0.08 0.94 0.15 93 1004.3
20200227050200 1 142 0.0 0.0 0.05 0.91 0.13 94 1004.5
20200227045659 1 142 0.0 3.2 0.05 0.91 0.13 94 1004.5
20200227045159 1 142 0.0 4.8 0.05 0.91 0.13 94 1004.4
20200227044659 1 142 1.6 4.8 0.05 0.94 0.13 94 1004.6
20200227044159 1 142 1.6 4.8 0.05 0.91 0.10 93 1004.5
20200227043658 1 142 1.6 4.8 0.05 0.91 0.10 93 1004.7
20200227043156 1 142 0.0 4.8 0.05 0.91 0.10 93 1004.6
20200227042656 1 142 0.0 3.2 0.03 0.91 0.08 93 1004.7
20200227042156 1 142 0.0 1.6 0.03 0.91 0.08 93 1004.7
20200227041654 1 142 0.0 3.2 0.03 0.91 0.08 93 1004.6
20200227041155 1 142 0.0 3.2 0.03 0.91 0.08 93 1004.7
20200227040654 1 143 0.0 3.2 0.00 0.89 0.05 93 1004.7
20200227040154 1 141 0.0 3.2 0.00 0.89 0.05 93 1004.7
20200227035154 1 141 0.0 4.8 0.00 0.89 0.05 93 1004.7
20200227034654 1 141 1.6 8.0 0.00 0.89 0.05 93 1004.7
20200227034152 1 142 3.2 8.0 0.00 0.89 0.05 93 1004.7
20200227033653 1 141 1.6 6.4 0.00 0.91 0.05 93 1004.7
20200227033150 1 141 1.6 3.2 0.00 0.91 0.05 93 1004.7
20200227032650 2 141 1.6 12.9 0.03 0.91 0.05 93 1004.7
20200227032148 2 142 3.2 12.9 0.03 0.91 0.05 93 1004.7
20200227031648 2 176 4.8 14.5 0.03 0.91 0.05 93 1004.8
20200227031148 2 153 3.2 14.5 0.03 0.91 0.05 93 1004.8
20200227030648 1 166 3.2 8.0 0.03 0.91 0.05 93 1004.8
20200227030146 2 169 3.2 8.0 0.03 0.91 0.05 93 1004.9
20200227025646 2 181 4.8 8.0 0.03 0.91 0.05 93 1004.9
20200227025145 2 159 3.2 9.7 0.03 0.91 0.05 93 1004.8
20200227024644 2 154 3.2 9.7 0.03 0.91 0.05 93 1005.0
20200227024144 2 153 3.2 8.0 0.05 0.91 0.05 93 1005.0
20200227023644 2 153 3.2 8.0 0.05 0.91 0.05 93 1004.9
20200227023144 1 144 4.8 9.7 0.05 0.91 0.05 93 1005.0
20200227022644 1 159 4.8 9.7 0.03 0.89 0.05 93 1005.1
20200227022144 1 156 3.2 8.0 0.05 0.89 0.05 93 1005.2
20200227021644 1 157 1.6 6.4 0.05 0.89 0.05 93 1005.2
20200227021144 1 156 3.2 6.4 0.05 0.89 0.05 93 1005.1
20200227020642 1 157 1.6 6.4 0.05 0.89 0.05 93 1005.1
20200227020142 1 151 0.0 6.4 0.05 0.89 0.05 93 1005.2
20200227015642 1 151 1.6 8.0 0.05 0.89 0.05 92 1005.3
20200227015142 1 153 3.2 8.0 0.05 0.89 0.05 92 1005.3
20200227014642 1 151 1.6 8.0 0.05 0.89 0.05 92 1005.3
20200227014143 1 184 1.6 4.8 0.03 0.89 0.03 92 1005.2
20200227013642 1 184 3.2 6.4 0.03 0.89 0.03 92 1005.3
20200227013142 1 184 3.2 6.4 0.03 0.89 0.03 92 1005.3
20200227012642 1 184 1.6 6.4 0.03 0.89 0.03 91 1005.2
20200227012141 1 272 3.2 8.0 0.00 0.86 0.00 91 1005.3
20200227011640 2 272 4.8 9.7 0.00 0.86 0.00 91 1005.3
20200227011141 2 168 4.8 9.7 0.00 0.86 0.00 91 1005.3
20200227010640 2 162 4.8 9.7 0.00 0.86 0.00 92 1005.4
20200227010140 2 172 4.8 8.0 0.00 0.89 0.00 92 1005.4
20200227005641 2 176 4.8 8.0 0.00 0.89 0.00 92 1005.4
20200227005140 2 171 4.8 8.0 0.00 0.89 0.00 92 1005.3
20200227004640 2 172 4.8 8.0 0.00 0.89 0.00 92 1005.3
20200227004140 2 174 4.8 11.3 0.00 0.94 0.00 92 1005.3
20200227003640 2 181 3.2 11.3 0.00 0.94 0.00 91 1005.3
20200227003140 2 166 1.6 11.3 0.00 0.94 0.00 91 1005.3
20200227002638 2 167 1.6 11.3 0.00 0.97 0.00 91 1005.4
20200227002141 2 167 4.8 11.3 0.00 0.97 0.00 92 1005.4
20200227001638 2 163 4.8 11.3 0.00 0.99 0.00 92 1005.4
20200227001138 2 185 4.8 9.7 0.00 0.99 0.00 92 1005.5
20200227000638 2 193 3.2 8.0 0.00 0.99 0.00 91 1005.5
20200227000138 2 193 1.6 4.8 0.00 0.99 0.00 91 1005.4
20200226235638 2 193 0.0 1.6 0.00 0.99 0.00 91 1005.5
20200226235138 2 193 1.6 6.4 0.00 0.99 0.00 91 1005.5
20200226234638 2 193 3.2 6.4 0.00 0.99 0.00 91 1005.5
20200226234138 1 263 3.2 6.4 0.00 0.99 0.00 91 1005.3
20200226233636 1 180 1.6 6.4 0.00 0.99 0.00 91 1005.3
20200226233135 1 180 1.6 4.8 0.00 0.99 0.00 90 1005.3
20200226232636 1 181 0.0 3.2 0.00 0.99 0.00 90 1005.2
20200226232136 1 181 0.0 3.2 0.00 0.99 0.00 90 1005.2
20200226231636 1 181 0.0 3.2 0.00 0.99 0.00 90 1005.2
20200226231136 2 180 1.6 4.8 0.00 0.99 0.00 90 1005.3
20200226230636 2 158 0.0 4.8 0.00 0.99 0.00 90 1005.2
20200226230136 2 158 0.0 4.8 0.00 0.99 0.00 89 1005.2
20200226225633 2 158 0.0 4.8 0.00 0.99 0.99 89 1005.0
20200226225133 2 158 1.6 9.7 0.00 0.99 0.99 89 1005.0
20200226224634 2 158 3.2 11.3 0.00 0.99 0.99 89 1005.0
20200226224134 2 238 1.6 11.3 0.00 0.99 0.99 89 1005.1
20200226223633 2 275 3.2 11.3 0.00 0.99 0.99 89 1005.2
20200226223206 2 278 3.2 11.3 0.00 0.99 0.99 89 1005.1
20200226222633 2 240 1.6 9.7 0.00 0.99 0.99 89 1005.2
20200226222135 2 271 1.6 9.7 0.00 0.99 0.99 89 1005.2
20200226221635 2 316 3.2 9.7 0.00 0.99 0.99 89 1005.1
20200226221134 2 330 3.2 8.0 0.00 0.99 0.99 89 1005.0
20200226220633 2 285 6.4 20.9 0.00 0.99 0.99 89 1004.9
20200226220133 2 245 4.8 20.9 0.00 0.99 0.99 89 1005.0
20200226215633 2 313 3.2 9.7 0.00 0.99 0.99 89 1004.9
20200226215134 2 301 3.2 6.4 0.00 1.02 0.99 89 1004.9
20200226214633 2 303 1.6 6.4 0.00 1.02 0.99 89 1004.9
20200226214133 2 286 1.6 8.0 0.00 1.02 0.99 89 1004.9
20200226213634 2 282 3.2 8.0 0.00 1.02 0.99 89 1004.8
20200226213134 2 259 3.2 6.4 0.00 1.04 0.99 89 1004.9
20200226212633 2 274 3.2 12.9 0.00 1.04 0.99 89 1004.8
20200226212134 2 306 4.8 14.5 0.00 1.04 0.99 89 1004.7
20200226211633 2 282 6.4 14.5 0.00 1.04 0.99 89 1004.7
20200226211133 2 337 6.4 17.7 0.00 1.04 0.99 89 1004.6
20200226210635 2 303 8.0 17.7 0.00 1.04 0.99 89 1004.6
20200226210134 2 296 9.7 19.3 0.00 1.04 0.99 90 1004.5
20200226205634 2 264 9.7 20.9 0.00 1.04 0.99 90 1004.6
20200226205133 2 299 6.4 20.9 0.00 1.04 0.99 90 1004.3
20200226204634 2 282 3.2 16.1 0.00 1.04 0.99 90 1004.4
20200226204134 2 265 3.2 16.1 0.00 1.04 0.99 90 1004.4
20200226203633 2 225 4.8 14.5 0.00 1.04 0.99 90 1004.4
20200226203134 2 220 6.4 12.9 0.00 1.04 0.99 90 1004.3
20200226202633 2 267 6.4 14.5 0.00 1.04 0.99 90 1004.3
20200226202133 2 283 3.2 14.5 0.00 1.04 0.99 90 1004.2
20200226201634 2 217 1.6 8.0 0.00 1.04 0.99 89 1004.2
20200226201134 2 317 3.2 11.3 0.00 1.04 0.99 89 1004.1
20200226200631 2 290 6.4 12.9 0.00 1.04 0.99 89 1004.1
20200226200131 2 263 8.0 22.5 0.00 1.04 0.99 89 1003.9
20200226195632 2 253 9.7 22.5 0.00 1.04 0.99 89 1003.9
20200226195132 2 309 9.7 20.9 0.00 1.07 0.99 89 1003.8
20200226194631 2 307 11.3 22.5 0.00 1.07 0.99 89 1003.9
20200226194131 2 305 9.7 22.5 0.00 1.07 0.99 89 1003.9
20200226193631 2 343 11.3 22.5 0.00 1.07 0.99 89 1003.9
20200226193131 2 297 11.3 22.5 0.00 1.09 0.99 89 1003.9
20200226192631 2 310 9.7 22.5 0.03 1.09 0.99 90 1003.8
20200226192131 2 280 9.7 25.7 0.03 1.09 0.99 90 1003.8
20200226191632 2 310 8.0 25.7 0.03 1.12 0.99 90 1003.8
20200226191131 2 343 8.0 16.1 0.03 1.14 0.99 90 1003.7
20200226190632 2 257 8.0 19.3 0.03 1.17 0.99 91 1003.7
20200226190131 2 272 8.0 19.3 0.03 1.17 0.99 91 1003.7
20200226185632 2 287 6.4 17.7 0.03 1.17 0.99 91 1003.6
20200226185129 2 328 6.4 20.9 0.03 1.19 0.99 90 1003.6
20200226184629 2 318 6.4 22.5 0.03 1.22 0.99 90 1003.6
20200226184129 2 305 6.4 22.5 0.03 1.24 0.99 90 1003.5
20200226183630 2 247 3.2 14.5 0.03 1.27 0.99 90 1003.5
20200226183130 2 276 1.6 12.9 0.05 1.32 0.99 90 1003.5
20200226182629 2 254 3.2 12.9 0.05 1.30 0.97 90 1003.4
20200226182129 2 134 1.6 17.7 0.05 1.30 0.97 90 1003.3
20200226181631 2 180 4.8 17.7 0.05 1.30 0.97 90 1003.3
20200226181129 2 284 6.4 25.7 0.05 1.30 0.97 90 1003.2
20200226180630 2 279 6.4 25.7 0.05 1.30 0.97 90 1003.2
20200226180129 2 327 9.7 27.4 0.05 1.30 0.97 90 1003.0
20200226175629 2 22 11.3 27.4 0.05 1.30 0.97 90 1003.0
20200226175129 2 305 6.4 24.1 0.05 1.30 0.97 91 1002.9
20200226174629 2 274 3.2 17.7 0.05 1.30 0.97 91 1002.7
20200226174129 2 300 3.2 17.7 0.05 1.30 0.97 91 1002.6
20200226173629 2 234 1.6 16.1 0.05 1.30 0.97 91 1002.5
20200226173129 2 14 0.0 8.0 0.05 1.27 0.94 91 1002.3
20200226172629 2 24 0.0 8.0 0.05 1.27 0.91 91 1002.3
20200226172127 2 280 0.0 12.9 0.05 1.32 0.91 91 1002.3
20200226171628 2 240 1.6 12.9 0.05 1.35 0.91 91 1002.3
20200226171125 2 241 1.6 16.1 0.05 1.37 0.91 90 1002.2
20200226170625 2 313 1.6 16.1 0.03 1.35 0.89 90 1002.2
20200226170126 2 180 4.8 17.7 0.03 1.35 0.89 90 1002.1
20200226165625 2 264 3.2 17.7 0.03 1.35 0.89 90 1002.0
20200226165123 2 311 1.6 16.1 0.03 1.35 0.89 90 1001.8
20200226164623 2 299 3.2 14.5 0.03 1.35 0.89 90 1001.7
20200226164121 2 284 3.2 14.5 0.03 1.35 0.89 90 1001.7
20200226163620 2 275 3.2 12.9 0.03 1.35 0.89 90 1001.6
20200226163121 2 313 1.6 16.1 0.00 1.32 0.89 90 1001.5
20200226162621 2 273 3.2 16.1 0.00 1.32 0.89 90 1001.5
20200226162121 2 324 4.8 16.1 0.00 1.32 0.89 90 1001.5
20200226161622 2 315 1.6 11.3 0.00 1.32 0.89 89 1001.4
20200226161121 2 275 4.8 19.3 0.00 1.32 0.89 89 1001.4
20200226160621 2 303 9.7 24.1 0.00 1.32 0.89 89 1001.3
20200226160119 2 343 9.7 25.7 0.00 1.32 0.89 89 1001.2
20200226155619 2 321 8.0 25.7 0.00 1.32 0.89 89 1001.2
20200226155120 2 295 4.8 19.3 0.00 1.32 0.89 89 1001.0
20200226154619 2 286 3.2 25.7 0.00 1.32 0.89 89 1000.9
20200226154119 2 301 6.4 25.7 0.00 1.32 0.89 89 1000.8
20200226153619 2 14 9.7 25.7 0.00 1.32 0.89 90 1000.9
20200226153119 2 283 4.8 25.7 0.00 1.32 0.89 90 1000.7
20200226152619 3 324 1.6 12.9 0.00 1.32 0.89 90 1000.6
20200226152118 3 313 1.6 11.3 0.00 1.32 0.89 91 1000.6
20200226151617 3 293 0.0 11.3 0.00 1.32 0.89 91 1000.5
20200226151119 3 301 0.0 16.1 0.00 1.32 0.89 90 1000.4
20200226150617 3 205 0.0 16.1 0.00 1.32 0.89 90 1000.2
20200226150117 3 259 3.2 19.3 0.00 1.32 0.89 90 1000.1
20200226145617 2 261 3.2 19.3 0.00 1.32 0.89 90 1000.0
20200226145117 2 14 1.6 17.7 0.00 1.32 0.89 91 1000.1
20200226144617 2 304 3.2 19.3 0.00 1.32 0.89 90 1000.1
20200226144117 2 297 6.4 19.3 0.00 1.32 0.89 90 1000.0
20200226143615 2 299 4.8 19.3 0.00 1.32 0.89 90 999.9
20200226143115 2 304 3.2 19.3 0.00 1.32 0.89 91 999.9
20200226142616 2 236 4.8 19.3 0.00 1.32 0.89 90 999.8
20200226142115 2 262 6.4 19.3 0.00 1.32 0.89 90 999.5
20200226141615 2 307 6.4 25.7 0.00 1.32 0.89 90 999.5
20200226141115 2 301 8.0 25.7 0.00 1.32 0.89 90 999.5
20200226140615 2 302 9.7 20.9 0.03 1.32 0.89 90 999.4
20200226140115 2 298 6.4 17.7 0.03 1.32 0.89 91 999.4
20200226135615 2 292 6.4 29.0 0.03 1.32 0.89 91 999.4
20200226135115 2 303 11.3 29.0 0.03 1.32 0.89 91 999.3
20200226134613 2 280 12.9 29.0 0.03 1.32 0.89 91 999.3
20200226134113 2 303 12.9 29.0 0.03 1.32 0.89 91 999.3
20200226133613 2 321 12.9 25.7 0.03 1.32 0.89 92 999.2
20200226133113 2 359 9.7 25.7 0.05 1.32 0.89 92 999.1
20200226132614 2 301 9.7 22.5 0.05 1.32 0.89 92 999.1
20200226132113 2 305 9.7 22.5 0.05 1.32 0.89 92 999.0
20200226131613 2 313 11.3 22.5 0.05 1.32 0.89 92 998.8
20200226131113 2 317 8.0 22.5 0.05 1.32 0.89 92 998.8
20200226130614 2 308 6.4 22.5 0.05 1.30 0.89 92 998.8
20200226130113 2 303 9.7 20.9 0.05 1.30 0.86 92 998.7
20200226125611 2 311 8.0 24.1 0.05 1.30 0.86 92 998.7
20200226125111 2 316 6.4 24.1 0.08 1.30 0.86 92 998.5
20200226124611 2 308 9.7 24.1 0.08 1.30 0.86 92 998.4
20200226124111 2 336 9.7 24.1 0.08 1.30 0.86 92 998.4
20200226123610 2 307 8.0 17.7 0.10 1.30 0.86 92 998.4
20200226123111 2 303 8.0 17.7 0.08 1.27 0.84 92 998.3
20200226122611 2 317 9.7 22.5 0.10 1.27 0.84 92 998.2
20200226122111 2 319 11.3 22.5 0.13 1.27 0.84 92 998.1
20200226121611 2 274 11.3 25.7 0.13 1.27 0.84 92 998.1
20200226121110 2 250 9.7 25.7 0.15 1.27 0.84 93 998.0
20200226120609 2 313 9.7 22.5 0.15 1.27 0.81 93 997.9
20200226120108 1 286 8.0 22.5 0.15 1.27 0.81 92 997.8
20200226115609 1 289 6.4 19.3 0.15 1.24 0.79 92 997.8
20200226115109 2 343 6.4 22.5 0.15 1.22 0.79 93 997.8
20200226114607 2 138 11.3 22.5 0.15 1.22 0.79 93 997.6
20200226114106 1 305 11.3 19.3 0.15 1.22 0.79 93 997.6
20200226113607 1 305 9.7 22.5 0.15 1.19 0.76 93 997.5
20200226113111 1 289 8.0 22.5 0.15 1.19 0.76 93 997.4